BAW185 EGLL-KEWR

Flight info

Callsign BAW185
Flight time 6h 20m
Altitude 36000
Route CPT L9 BUCGO DCT FELCA DCT OFSOX DCT SLANY DCT KURUM DCT INRAD DCT TOBOR/M083F360 DCT 53N020W 5330N03000W 53N040W 51N050W DCT ALLRY/N0483F380 N468A TUSKY Q475 COPLY DCT BOS DCT NELIE FLOSI4
Aircraft B77W/H-SDE1E3FGHIJ3J4J5J6M1M2P2RWXYZ/LB1D1

Departure

Time 2026-04-23 08:38
Airport London Heathrow Airport (EGLL)

Arrival

Time 2026-04-23 14:59
Airport Newark Liberty International Airport (KEWR)
Time Latitude Longitude Altitude Speed Heading
2026-04-23 08:12 51.47124 -0.47731 97 ft 0 kts 90°
2026-04-23 08:26 51.47124 -0.47742 97 ft 2 kts 90°
2026-04-23 08:26 51.47124 -0.47766 97 ft 2 kts 90°
2026-04-23 08:26 51.47125 -0.47790 97 ft 2 kts 101°
2026-04-23 08:27 51.47129 -0.47812 97 ft 2 kts 117°
2026-04-23 08:27 51.47137 -0.47833 97 ft 2 kts 130°
2026-04-23 08:27 51.47147 -0.47850 97 ft 2 kts 143°
2026-04-23 08:27 51.47160 -0.47862 97 ft 2 kts 156°
2026-04-23 08:28 51.47174 -0.47870 97 ft 2 kts 170°
2026-04-23 08:28 51.47185 -0.47872 97 ft 0 kts 180°
2026-04-23 08:28 51.47187 -0.47872 97 ft 0 kts 181°
2026-04-23 08:31 51.47173 -0.47872 97 ft 5 kts 179°
2026-04-23 08:32 51.47116 -0.47870 97 ft 10 kts 180°
2026-04-23 08:32 51.47033 -0.47868 97 ft 12 kts 180°
2026-04-23 08:32 51.46953 -0.47868 97 ft 11 kts 180°
2026-04-23 08:32 51.46880 -0.47868 97 ft 10 kts 180°
2026-04-23 08:33 51.46812 -0.47867 97 ft 9 kts 180°
2026-04-23 08:33 51.46751 -0.47866 97 ft 8 kts 180°
2026-04-23 08:33 51.46695 -0.47866 97 ft 7 kts 185°
2026-04-23 08:33 51.46661 -0.47913 97 ft 7 kts 248°
2026-04-23 08:34 51.46652 -0.47990 97 ft 6 kts 269°
2026-04-23 08:34 51.46652 -0.48067 97 ft 6 kts 271°
2026-04-23 08:34 51.46653 -0.48157 97 ft 9 kts 270°
2026-04-23 08:34 51.46652 -0.48264 97 ft 9 kts 269°
2026-04-23 08:35 51.46652 -0.48366 97 ft 8 kts 270°
2026-04-23 08:35 51.46651 -0.48481 97 ft 12 kts 270°
2026-04-23 08:35 51.46651 -0.48618 97 ft 11 kts 270°
2026-04-23 08:35 51.46637 -0.48728 97 ft 8 kts 229°
2026-04-23 08:36 51.46613 -0.48755 97 ft 0 kts 208°
2026-04-23 08:36 51.46596 -0.48767 97 ft 6 kts 201°
2026-04-23 08:36 51.46538 -0.48780 97 ft 9 kts 174°
2026-04-23 08:36 51.46488 -0.48721 97 ft 9 kts 116°
2026-04-23 08:37 51.46479 -0.48627 97 ft 8 kts 91°
2026-04-23 08:37 51.46479 -0.48539 97 ft 7 kts 89°
2026-04-23 08:37 51.46480 -0.48385 97 ft 30 kts 90°
2026-04-23 08:37 51.46481 -0.47676 97 ft 94 kts 90°
2026-04-23 08:38 51.46484 -0.46314 97 ft 148 kts 90°
2026-04-23 08:38 51.46482 -0.44488 311 ft 174 kts 89°
2026-04-23 08:38 51.46521 -0.42534 960 ft 179 kts 87°
2026-04-23 08:38 51.46361 -0.40598 1616 ft 181 kts 109°
2026-04-23 08:39 51.45662 -0.38832 1897 ft 201 kts 132°
2026-04-23 08:39 51.44427 -0.37568 2256 ft 223 kts 159°
2026-04-23 08:39 51.42794 -0.37437 2561 ft 251 kts 190°
2026-04-23 08:39 51.41257 -0.38835 3121 ft 268 kts 224°
2026-04-23 08:40 51.40203 -0.41329 3781 ft 275 kts 248°
2026-04-23 08:40 51.39981 -0.44369 4390 ft 282 kts 276°
2026-04-23 08:40 51.40300 -0.47455 5089 ft 283 kts 282°
2026-04-23 08:40 51.40698 -0.50533 5743 ft 285 kts 281°
2026-04-23 08:41 51.41094 -0.53647 5946 ft 288 kts 281°
2026-04-23 08:41 51.41527 -0.56794 6016 ft 295 kts 288°
2026-04-23 08:41 51.42214 -0.59848 6830 ft 290 kts 291°
2026-04-23 08:41 51.42931 -0.62880 7527 ft 290 kts 291°
2026-04-23 08:42 51.43647 -0.65907 8076 ft 295 kts 290°
2026-04-23 08:42 51.44371 -0.68971 8698 ft 296 kts 290°
2026-04-23 08:42 51.45097 -0.72047 9302 ft 297 kts 290°
2026-04-23 08:42 51.45841 -0.75202 9880 ft 300 kts 290°
2026-04-23 08:43 51.46585 -0.78362 10445 ft 303 kts 290°
2026-04-23 08:43 51.47332 -0.81542 10813 ft 314 kts 290°
2026-04-23 08:43 51.48121 -0.84904 10999 ft 332 kts 290°
2026-04-23 08:43 51.48943 -0.88410 11247 ft 347 kts 290°
2026-04-23 08:44 51.49814 -0.92135 11508 ft 362 kts 290°
2026-04-23 08:44 51.50711 -0.95976 11771 ft 377 kts 290°
2026-04-23 08:44 51.51643 -0.99977 12095 ft 390 kts 290°
2026-04-23 08:44 51.52600 -1.04093 12742 ft 395 kts 290°
2026-04-23 08:45 51.53566 -1.08254 13454 ft 398 kts 290°
2026-04-23 08:45 51.54538 -1.12446 14172 ft 403 kts 291°
2026-04-23 08:45 51.55508 -1.16643 14946 ft 406 kts 290°
2026-04-23 08:45 51.56490 -1.20897 15782 ft 409 kts 291°
2026-04-23 08:46 51.57471 -1.25157 16613 ft 411 kts 291°
2026-04-23 08:46 51.58452 -1.29472 17421 ft 414 kts 289°
2026-04-23 08:46 51.59196 -1.33935 18119 ft 420 kts 284°
2026-04-23 08:46 51.59874 -1.38540 18809 ft 425 kts 284°
2026-04-23 08:47 51.60548 -1.43155 19589 ft 427 kts 284°
2026-04-23 08:47 51.61221 -1.47779 20344 ft 429 kts 285°
2026-04-23 08:47 51.61897 -1.52437 21025 ft 432 kts 285°
2026-04-23 08:47 51.62579 -1.57144 21679 ft 436 kts 285°
2026-04-23 08:48 51.63270 -1.61935 22361 ft 438 kts 285°
2026-04-23 08:48 51.63955 -1.66696 23031 ft 440 kts 285°
2026-04-23 08:48 51.64647 -1.71525 23647 ft 443 kts 285°
2026-04-23 08:48 51.65341 -1.76378 24235 ft 446 kts 285°
2026-04-23 08:49 51.66037 -1.81262 24777 ft 450 kts 285°
2026-04-23 08:49 51.66737 -1.86181 25338 ft 453 kts 285°
2026-04-23 08:49 51.67433 -1.91104 25926 ft 456 kts 285°
2026-04-23 08:49 51.68146 -1.96153 26493 ft 459 kts 285°
2026-04-23 08:50 51.68858 -2.01214 27040 ft 462 kts 285°
2026-04-23 08:50 51.69556 -2.06195 27584 ft 465 kts 285°
2026-04-23 08:50 51.70266 -2.11274 28169 ft 467 kts 285°
2026-04-23 08:50 51.70978 -2.16394 28724 ft 469 kts 284°
2026-04-23 08:51 51.71693 -2.21544 29254 ft 472 kts 284°
2026-04-23 08:51 51.72406 -2.26702 29802 ft 474 kts 284°
2026-04-23 08:51 51.73116 -2.31854 30451 ft 474 kts 284°
2026-04-23 08:51 51.73825 -2.37024 31207 ft 470 kts 285°
2026-04-23 08:52 51.74520 -2.42114 31933 ft 466 kts 285°
2026-04-23 08:52 51.75212 -2.47188 32586 ft 463 kts 285°
2026-04-23 08:52 51.75892 -2.52198 33182 ft 461 kts 285°
2026-04-23 08:52 51.76569 -2.57207 33739 ft 458 kts 285°
2026-04-23 08:53 51.77247 -2.62230 34093 ft 461 kts 285°
2026-04-23 08:53 51.77933 -2.67324 34094 ft 471 kts 284°
2026-04-23 08:53 51.79350 -2.77899 34116 ft 488 kts 284°
2026-04-23 08:54 51.80056 -2.83209 34254 ft 491 kts 284°
2026-04-23 08:54 51.80770 -2.88605 34536 ft 489 kts 284°
2026-04-23 08:54 51.81478 -2.93967 34833 ft 488 kts 284°
2026-04-23 08:54 51.82179 -2.99300 35099 ft 487 kts 284°
2026-04-23 08:55 51.82877 -3.04634 35349 ft 487 kts 284°
2026-04-23 08:55 51.83574 -3.09972 35548 ft 488 kts 284°
2026-04-23 08:55 51.84273 -3.15347 35751 ft 489 kts 284°
2026-04-23 08:55 51.84967 -3.20713 35986 ft 488 kts 284°
2026-04-23 08:56 51.85656 -3.26047 36237 ft 487 kts 284°
2026-04-23 08:56 51.86336 -3.31343 36392 ft 487 kts 284°
2026-04-23 08:56 51.87705 -3.42053 36394 ft 487 kts 284°
2026-04-23 08:57 51.89050 -3.52672 36390 ft 471 kts 284°
2026-04-23 08:57 51.89691 -3.57770 36385 ft 458 kts 284°
2026-04-23 08:57 51.90317 -3.62762 36737 ft 452 kts 283°
2026-04-23 08:58 51.90944 -3.67764 36480 ft 456 kts 283°
2026-04-23 08:58 51.91562 -3.72721 36395 ft 452 kts 282°
2026-04-23 08:58 51.92798 -3.82693 36403 ft 455 kts 282°
2026-04-23 08:59 51.94036 -3.92752 36404 ft 454 kts 283°
2026-04-23 08:59 51.95261 -4.02769 36383 ft 455 kts 282°
2026-04-23 09:00 51.96477 -4.12802 36369 ft 455 kts 282°
2026-04-23 09:00 51.97683 -4.22820 36367 ft 455 kts 282°
2026-04-23 09:01 51.98882 -4.32859 36359 ft 455 kts 282°
2026-04-23 09:01 52.00066 -4.42847 36359 ft 456 kts 282°
2026-04-23 09:02 52.01252 -4.52931 36356 ft 455 kts 282°
2026-04-23 09:02 52.02425 -4.62982 36362 ft 457 kts 282°
2026-04-23 09:03 52.03592 -4.73060 36372 ft 457 kts 281°
2026-04-23 09:03 52.04752 -4.83161 36366 ft 457 kts 281°
2026-04-23 09:04 52.05906 -4.93278 36362 ft 457 kts 281°
2026-04-23 09:04 52.07052 -5.03417 36364 ft 458 kts 281°
2026-04-23 09:05 52.08185 -5.13524 36365 ft 456 kts 281°
2026-04-23 09:05 52.09309 -5.23631 36358 ft 457 kts 280°
2026-04-23 09:06 52.10426 -5.33750 36364 ft 457 kts 280°
2026-04-23 09:06 52.11534 -5.43881 36361 ft 456 kts 280°
2026-04-23 09:07 52.12639 -5.54068 36360 ft 458 kts 280°
2026-04-23 09:07 52.13731 -5.64213 36353 ft 458 kts 280°
2026-04-23 09:08 52.14820 -5.74420 36343 ft 459 kts 279°
2026-04-23 09:08 52.15794 -5.84618 36353 ft 459 kts 274°
2026-04-23 09:09 52.16217 -5.94971 36358 ft 459 kts 273°
2026-04-23 09:09 52.16598 -6.05317 36350 ft 459 kts 272°
2026-04-23 09:10 52.17139 -6.20790 36354 ft 459 kts 272°
2026-04-23 09:11 52.17486 -6.31139 36339 ft 459 kts 272°
2026-04-23 09:11 52.17824 -6.41522 36342 ft 459 kts 272°
2026-04-23 09:12 52.18150 -6.51843 36341 ft 461 kts 272°
2026-04-23 09:12 52.18469 -6.62238 36333 ft 461 kts 272°
2026-04-23 09:13 52.18779 -6.72671 36334 ft 461 kts 271°
2026-04-23 09:13 52.19080 -6.83122 36334 ft 461 kts 271°
2026-04-23 09:14 52.19372 -6.93549 36330 ft 461 kts 271°
2026-04-23 09:14 52.19655 -7.03970 36332 ft 462 kts 271°
2026-04-23 09:15 52.19928 -7.14396 36330 ft 462 kts 271°
2026-04-23 09:15 52.20192 -7.24832 36332 ft 463 kts 271°
2026-04-23 09:16 52.20448 -7.35345 36332 ft 463 kts 271°
2026-04-23 09:16 52.20692 -7.45724 36331 ft 463 kts 271°
2026-04-23 09:17 52.20930 -7.56219 36328 ft 464 kts 271°
2026-04-23 09:17 52.21159 -7.66738 36326 ft 464 kts 270°
2026-04-23 09:18 52.21377 -7.77172 36323 ft 464 kts 269°
2026-04-23 09:18 52.21587 -7.87662 36314 ft 465 kts 269°
2026-04-23 09:19 52.21787 -7.98172 36304 ft 466 kts 269°
2026-04-23 09:19 52.21980 -8.08746 36307 ft 466 kts 269°
2026-04-23 09:20 52.22161 -8.19223 36307 ft 466 kts 269°
2026-04-23 09:20 52.22335 -8.29808 36307 ft 465 kts 269°
2026-04-23 09:21 52.22498 -8.40311 36292 ft 466 kts 269°
2026-04-23 09:21 52.22653 -8.50857 36289 ft 465 kts 269°
2026-04-23 09:22 52.22797 -8.61396 36290 ft 466 kts 269°
2026-04-23 09:22 52.23075 -8.71960 36286 ft 468 kts 272°
2026-04-23 09:23 52.23775 -8.82445 36284 ft 468 kts 273°
2026-04-23 09:23 52.24115 -8.87680 36068 ft 465 kts 272°
2026-04-23 09:23 52.24452 -8.92981 36263 ft 467 kts 272°
2026-04-23 09:24 52.25101 -9.03531 36278 ft 471 kts 272°
2026-04-23 09:24 52.25734 -9.14107 36276 ft 470 kts 272°
2026-04-23 09:25 52.26419 -9.24723 36269 ft 471 kts 273°
2026-04-23 09:25 52.27119 -9.35320 36272 ft 470 kts 273°
2026-04-23 09:26 52.27805 -9.45931 36260 ft 471 kts 273°
2026-04-23 09:26 52.28476 -9.56504 36263 ft 473 kts 272°
2026-04-23 09:27 52.29143 -9.67187 36253 ft 472 kts 272°
2026-04-23 09:27 52.29798 -9.77829 36256 ft 472 kts 272°
2026-04-23 09:28 52.30440 -9.88430 36254 ft 472 kts 271°
2026-04-23 09:28 52.31076 -9.99094 36249 ft 473 kts 272°
2026-04-23 09:29 52.31698 -10.09687 36229 ft 472 kts 271°
2026-04-23 09:29 52.32315 -10.20376 36218 ft 474 kts 271°
2026-04-23 09:30 52.32926 -10.31111 36214 ft 474 kts 271°
2026-04-23 09:30 52.33521 -10.41743 36214 ft 475 kts 271°
2026-04-23 09:31 52.34112 -10.52487 36215 ft 475 kts 271°
2026-04-23 09:31 52.34692 -10.63204 36216 ft 476 kts 271°
2026-04-23 09:32 52.35259 -10.73857 36214 ft 475 kts 270°
2026-04-23 09:32 52.35822 -10.84636 36211 ft 475 kts 270°
2026-04-23 09:33 52.36371 -10.95318 36208 ft 477 kts 270°
2026-04-23 09:33 52.36914 -11.06101 36204 ft 477 kts 270°
2026-04-23 09:34 52.37450 -11.16913 36208 ft 477 kts 270°
2026-04-23 09:34 52.37970 -11.27625 36199 ft 477 kts 270°
2026-04-23 09:35 52.38486 -11.38447 36197 ft 478 kts 270°
2026-04-23 09:35 52.38992 -11.49287 36187 ft 479 kts 270°
2026-04-23 09:36 52.39487 -11.60091 36192 ft 480 kts 270°
2026-04-23 09:36 52.39975 -11.70948 36187 ft 479 kts 269°
2026-04-23 09:37 52.40452 -11.81790 36179 ft 480 kts 269°
2026-04-23 09:37 52.40918 -11.92624 36187 ft 481 kts 269°
2026-04-23 09:38 52.41377 -12.03533 36180 ft 483 kts 269°
2026-04-23 09:38 52.41830 -12.14496 36178 ft 482 kts 269°
2026-04-23 09:39 52.42268 -12.25368 36173 ft 481 kts 269°
2026-04-23 09:39 52.42698 -12.36323 36169 ft 484 kts 269°
2026-04-23 09:40 52.43119 -12.47274 36163 ft 483 kts 269°
2026-04-23 09:40 52.43529 -12.58230 36163 ft 485 kts 268°
2026-04-23 09:41 52.43932 -12.69265 36155 ft 485 kts 268°
2026-04-23 09:41 52.44323 -12.80220 36150 ft 485 kts 267°
2026-04-23 09:42 52.44705 -12.91248 36144 ft 486 kts 268°
2026-04-23 09:42 52.45077 -13.02280 36144 ft 487 kts 267°
2026-04-23 09:43 52.45438 -13.13288 36145 ft 487 kts 267°
2026-04-23 09:43 52.45788 -13.24283 36138 ft 488 kts 267°
2026-04-23 09:44 52.46131 -13.35386 36129 ft 490 kts 268°
2026-04-23 09:44 52.46466 -13.46523 36125 ft 489 kts 268°
2026-04-23 09:45 52.46787 -13.57597 36124 ft 491 kts 267°
2026-04-23 09:45 52.47101 -13.68785 36120 ft 493 kts 266°
2026-04-23 09:46 52.47404 -13.79901 36115 ft 490 kts 266°
2026-04-23 09:46 52.47696 -13.91087 36111 ft 494 kts 266°
2026-04-23 09:47 52.47980 -14.02291 36103 ft 493 kts 266°
2026-04-23 09:47 52.48254 -14.13552 36101 ft 494 kts 266°
2026-04-23 09:48 52.48515 -14.24728 36096 ft 495 kts 266°
2026-04-23 09:48 52.48768 -14.36002 36092 ft 495 kts 266°
2026-04-23 09:49 52.49010 -14.47271 36090 ft 496 kts 266°
2026-04-23 09:49 52.49241 -14.58530 36089 ft 497 kts 266°
2026-04-23 09:50 52.49462 -14.69796 36079 ft 495 kts 265°
2026-04-23 09:50 52.49671 -14.81057 36066 ft 498 kts 265°
2026-04-23 09:51 52.49871 -14.92344 36069 ft 497 kts 265°
2026-04-23 09:51 52.50311 -15.03721 36057 ft 508 kts 275°
2026-04-23 09:52 52.51721 -15.15075 36061 ft 509 kts 276°
2026-04-23 09:52 52.53135 -15.26390 36060 ft 509 kts 276°
2026-04-23 09:53 52.54511 -15.37681 36048 ft 510 kts 276°
2026-04-23 09:53 52.55875 -15.49065 36050 ft 508 kts 276°
2026-04-23 09:54 52.57214 -15.60401 36044 ft 510 kts 276°
2026-04-23 09:54 52.58547 -15.71810 36040 ft 510 kts 275°
2026-04-23 09:55 52.59866 -15.83229 36031 ft 510 kts 275°
2026-04-23 09:55 52.61174 -15.94659 36028 ft 512 kts 275°
2026-04-23 09:56 52.62469 -16.06080 36019 ft 510 kts 275°
2026-04-23 09:56 52.63756 -16.17542 36019 ft 512 kts 275°
2026-04-23 09:57 52.65031 -16.29000 36023 ft 511 kts 275°
2026-04-23 09:57 52.66304 -16.40559 36019 ft 513 kts 276°
2026-04-23 09:58 52.67558 -16.52044 36021 ft 511 kts 276°
2026-04-23 09:58 52.68798 -16.63519 36023 ft 514 kts 276°
2026-04-23 09:59 52.70038 -16.75083 36003 ft 512 kts 275°
2026-04-23 09:59 52.71257 -16.86583 35996 ft 513 kts 275°
2026-04-23 10:00 52.72469 -16.98125 36001 ft 514 kts 275°
2026-04-23 10:00 52.73668 -17.09650 35999 ft 513 kts 275°
2026-04-23 10:01 52.74868 -17.21311 35966 ft 514 kts 275°
2026-04-23 10:01 52.76047 -17.32874 35971 ft 515 kts 275°
2026-04-23 10:02 52.77214 -17.44436 35965 ft 515 kts 275°
2026-04-23 10:02 52.78376 -17.56069 35954 ft 516 kts 275°
2026-04-23 10:03 52.79525 -17.67691 35946 ft 517 kts 274°
2026-04-23 10:03 52.80673 -17.79428 35970 ft 517 kts 274°
2026-04-23 10:04 52.81798 -17.91053 35963 ft 518 kts 274°
2026-04-23 10:04 52.82920 -18.02769 35965 ft 517 kts 275°
2026-04-23 10:05 52.84029 -18.14477 35939 ft 517 kts 275°
2026-04-23 10:05 52.85125 -18.26173 35939 ft 518 kts 275°
2026-04-23 10:06 52.86212 -18.37906 35946 ft 520 kts 275°
2026-04-23 10:06 52.87293 -18.49698 35924 ft 519 kts 275°
2026-04-23 10:07 52.88350 -18.61370 35928 ft 520 kts 275°
2026-04-23 10:07 52.89411 -18.73205 35907 ft 518 kts 274°
2026-04-23 10:08 52.90449 -18.84948 35898 ft 521 kts 274°
2026-04-23 10:08 52.91483 -18.96756 35916 ft 519 kts 274°
2026-04-23 10:09 52.93010 -19.14464 35901 ft 519 kts 274°
2026-04-23 10:09 52.94011 -19.26245 35901 ft 519 kts 274°
2026-04-23 10:10 52.95003 -19.38074 35923 ft 520 kts 274°
2026-04-23 10:10 52.95982 -19.49889 35894 ft 518 kts 274°
2026-04-23 10:11 52.96947 -19.61681 35892 ft 520 kts 274°
2026-04-23 10:11 52.97899 -19.73450 35882 ft 517 kts 273°
2026-04-23 10:12 52.98840 -19.85258 35873 ft 519 kts 274°
2026-04-23 10:12 52.99774 -19.97115 35881 ft 519 kts 274°
2026-04-23 10:13 53.00794 -20.08965 35875 ft 521 kts 275°
2026-04-23 10:13 53.01891 -20.20782 35864 ft 520 kts 275°
2026-04-23 10:14 53.02969 -20.32585 35861 ft 519 kts 275°
2026-04-23 10:14 53.04031 -20.44394 35857 ft 519 kts 275°
2026-04-23 10:15 53.05081 -20.56228 35854 ft 520 kts 275°
2026-04-23 10:15 53.06113 -20.68011 35841 ft 520 kts 274°
2026-04-23 10:16 53.07141 -20.79901 35855 ft 519 kts 275°
2026-04-23 10:16 53.08151 -20.91727 35842 ft 521 kts 275°
2026-04-23 10:17 53.09149 -21.03546 35840 ft 519 kts 275°
2026-04-23 10:17 53.10135 -21.15390 35830 ft 521 kts 275°
2026-04-23 10:18 53.11114 -21.27275 35832 ft 519 kts 275°
2026-04-23 10:18 53.12078 -21.39148 35826 ft 522 kts 275°
2026-04-23 10:19 53.13035 -21.51071 35820 ft 520 kts 275°
2026-04-23 10:19 53.13972 -21.62903 35818 ft 521 kts 275°
2026-04-23 10:20 53.14905 -21.74842 35815 ft 520 kts 274°
2026-04-23 10:20 53.15824 -21.86752 35809 ft 520 kts 274°
2026-04-23 10:21 53.16727 -21.98627 35806 ft 522 kts 274°
2026-04-23 10:21 53.17625 -22.10585 35810 ft 522 kts 274°
2026-04-23 10:22 53.18069 -22.16562 36074 ft 524 kts 274°
2026-04-23 10:22 53.18510 -22.22533 35871 ft 524 kts 274°
2026-04-23 10:22 53.19384 -22.34496 35796 ft 521 kts 274°
2026-04-23 10:23 53.20244 -22.46453 35787 ft 523 kts 274°
2026-04-23 10:23 53.21097 -22.58476 35789 ft 522 kts 274°
2026-04-23 10:24 53.21935 -22.70462 35758 ft 521 kts 273°
2026-04-23 10:24 53.22758 -22.82409 35753 ft 522 kts 274°
2026-04-23 10:25 53.23569 -22.94351 35799 ft 521 kts 273°
2026-04-23 10:25 53.24373 -23.06390 35788 ft 522 kts 273°
2026-04-23 10:26 53.25161 -23.18367 35791 ft 522 kts 273°
2026-04-23 10:26 53.25937 -23.30337 35791 ft 523 kts 273°
2026-04-23 10:27 53.26704 -23.42368 35791 ft 522 kts 273°
2026-04-23 10:27 53.27459 -23.54407 35789 ft 523 kts 273°
2026-04-23 10:28 53.28200 -23.66420 35791 ft 521 kts 272°
2026-04-23 10:28 53.28923 -23.78347 35763 ft 522 kts 273°
2026-04-23 10:29 53.29645 -23.90450 35763 ft 522 kts 272°
2026-04-23 10:29 53.30350 -24.02474 35758 ft 523 kts 272°
2026-04-23 10:30 53.31044 -24.14529 35771 ft 522 kts 272°
2026-04-23 10:30 53.31724 -24.26554 35756 ft 523 kts 272°
2026-04-23 10:31 53.32393 -24.38591 35761 ft 520 kts 272°
2026-04-23 10:31 53.33046 -24.50574 35742 ft 522 kts 272°
2026-04-23 10:32 53.33688 -24.62567 35759 ft 521 kts 272°
2026-04-23 10:32 53.34320 -24.74616 35747 ft 520 kts 272°
2026-04-23 10:33 53.34938 -24.86611 35753 ft 520 kts 272°
2026-04-23 10:33 53.35542 -24.98596 35747 ft 520 kts 272°
2026-04-23 10:34 53.36136 -25.10600 35747 ft 520 kts 272°
2026-04-23 10:34 53.36716 -25.22586 35748 ft 519 kts 272°
2026-04-23 10:35 53.37288 -25.34644 35743 ft 520 kts 272°
2026-04-23 10:35 53.37843 -25.46621 35744 ft 519 kts 272°
2026-04-23 10:36 53.38385 -25.58580 35738 ft 519 kts 272°
2026-04-23 10:36 53.38917 -25.70557 35730 ft 519 kts 271°
2026-04-23 10:37 53.39438 -25.82583 35732 ft 517 kts 271°
2026-04-23 10:37 53.39945 -25.94566 35732 ft 519 kts 271°
2026-04-23 10:38 53.40438 -26.06510 35726 ft 519 kts 271°
2026-04-23 10:38 53.40923 -26.18521 35737 ft 516 kts 271°
2026-04-23 10:39 53.41391 -26.30435 35732 ft 515 kts 271°
2026-04-23 10:39 53.41849 -26.42406 35738 ft 517 kts 271°
2026-04-23 10:40 53.42294 -26.54313 35728 ft 515 kts 271°
2026-04-23 10:40 53.42727 -26.66254 35737 ft 515 kts 270°
2026-04-23 10:41 53.43150 -26.78235 35730 ft 514 kts 270°
2026-04-23 10:41 53.43558 -26.90159 35720 ft 516 kts 270°
2026-04-23 10:42 53.43953 -27.02027 35723 ft 514 kts 270°
2026-04-23 10:42 53.44339 -27.13999 35719 ft 515 kts 270°
2026-04-23 10:43 53.44712 -27.25938 35720 ft 514 kts 270°
2026-04-23 10:43 53.45074 -27.37867 35743 ft 513 kts 270°
2026-04-23 10:44 53.45422 -27.49777 35745 ft 514 kts 270°
2026-04-23 10:44 53.45759 -27.61679 35739 ft 513 kts 271°
2026-04-23 10:45 53.46083 -27.73553 35741 ft 512 kts 270°
2026-04-23 10:45 53.46395 -27.85457 35732 ft 514 kts 270°
2026-04-23 10:46 53.46697 -27.97387 35744 ft 512 kts 270°
2026-04-23 10:46 53.46986 -28.09323 35740 ft 514 kts 270°
2026-04-23 10:47 53.47263 -28.21216 35745 ft 513 kts 270°
2026-04-23 10:47 53.47528 -28.33090 35745 ft 513 kts 270°
2026-04-23 10:48 53.47783 -28.45066 35739 ft 514 kts 270°
2026-04-23 10:48 53.48025 -28.57016 35748 ft 514 kts 270°
2026-04-23 10:49 53.48255 -28.68934 35736 ft 512 kts 269°
2026-04-23 10:49 53.48473 -28.80826 35740 ft 513 kts 269°
2026-04-23 10:50 53.48678 -28.92691 35749 ft 512 kts 269°
2026-04-23 10:50 53.48872 -29.04641 35751 ft 513 kts 270°
2026-04-23 10:51 53.49055 -29.16551 35759 ft 512 kts 270°
2026-04-23 10:51 53.49225 -29.28437 35750 ft 512 kts 270°
2026-04-23 10:52 53.49385 -29.40418 35773 ft 513 kts 270°
2026-04-23 10:52 53.49530 -29.52234 35763 ft 511 kts 270°
2026-04-23 10:53 53.49665 -29.64163 35763 ft 512 kts 270°
2026-04-23 10:53 53.49788 -29.76055 35761 ft 511 kts 269°
2026-04-23 10:54 53.49898 -29.87903 35751 ft 512 kts 269°
2026-04-23 10:54 53.49972 -29.99809 35764 ft 510 kts 268°
2026-04-23 10:55 53.49890 -30.11680 35776 ft 509 kts 268°
2026-04-23 10:55 53.49786 -30.23501 35759 ft 512 kts 268°
2026-04-23 10:56 53.49666 -30.35439 35777 ft 509 kts 268°
2026-04-23 10:56 53.49534 -30.47255 35775 ft 511 kts 268°
2026-04-23 10:57 53.49390 -30.59106 35783 ft 509 kts 268°
2026-04-23 10:57 53.49233 -30.70964 35767 ft 510 kts 267°
2026-04-23 10:58 53.49064 -30.82828 35773 ft 509 kts 267°
2026-04-23 10:58 53.48884 -30.94630 35784 ft 509 kts 267°
2026-04-23 10:59 53.48692 -31.06473 35796 ft 509 kts 267°
2026-04-23 10:59 53.48488 -31.18301 35792 ft 509 kts 267°
2026-04-23 11:00 53.48272 -31.30150 35796 ft 509 kts 267°
2026-04-23 11:00 53.48047 -31.41906 35797 ft 508 kts 267°
2026-04-23 11:01 53.47808 -31.53723 35805 ft 510 kts 267°
2026-04-23 11:01 53.47557 -31.65594 35800 ft 509 kts 266°
2026-04-23 11:02 53.47294 -31.77440 35801 ft 510 kts 266°
2026-04-23 11:02 53.47021 -31.89240 35825 ft 508 kts 266°
2026-04-23 11:03 53.46735 -32.01043 35813 ft 509 kts 267°
2026-04-23 11:03 53.46439 -32.12843 35820 ft 509 kts 267°
2026-04-23 11:04 53.46129 -32.24709 35829 ft 508 kts 267°
2026-04-23 11:04 53.45808 -32.36515 35824 ft 509 kts 267°
2026-04-23 11:05 53.45479 -32.48245 35836 ft 508 kts 268°
2026-04-23 11:05 53.45135 -32.60071 35850 ft 508 kts 267°
2026-04-23 11:06 53.44600 -32.77707 35844 ft 506 kts 267°
2026-04-23 11:07 53.44227 -32.89510 35843 ft 508 kts 267°
2026-04-23 11:07 53.43844 -33.01287 35853 ft 507 kts 267°
2026-04-23 11:08 53.43451 -33.13007 35861 ft 507 kts 267°
2026-04-23 11:08 53.43044 -33.24766 35863 ft 505 kts 267°
2026-04-23 11:09 53.42629 -33.36466 35872 ft 507 kts 267°
2026-04-23 11:09 53.42200 -33.48210 35874 ft 506 kts 267°
2026-04-23 11:10 53.41761 -33.59921 35876 ft 506 kts 268°
2026-04-23 11:10 53.41310 -33.71638 35880 ft 505 kts 267°
2026-04-23 11:11 53.40847 -33.83384 35878 ft 506 kts 266°
2026-04-23 11:11 53.40373 -33.95088 35884 ft 507 kts 266°
2026-04-23 11:12 53.39889 -34.06770 35899 ft 505 kts 267°
2026-04-23 11:12 53.39395 -34.18424 35890 ft 505 kts 267°
2026-04-23 11:13 53.38886 -34.30141 35901 ft 504 kts 267°
2026-04-23 11:13 53.38367 -34.41822 35914 ft 504 kts 267°
2026-04-23 11:14 53.37841 -34.53410 35910 ft 504 kts 267°
2026-04-23 11:14 53.37301 -34.65057 35913 ft 502 kts 266°
2026-04-23 11:15 53.36750 -34.76691 35910 ft 502 kts 266°
2026-04-23 11:15 53.36192 -34.88252 35915 ft 501 kts 266°
2026-04-23 11:16 53.35622 -34.99800 35923 ft 501 kts 266°
2026-04-23 11:16 53.35037 -35.11429 35925 ft 500 kts 266°
2026-04-23 11:17 53.34448 -35.22917 35919 ft 499 kts 266°
2026-04-23 11:17 53.33844 -35.34495 35930 ft 500 kts 266°
2026-04-23 11:18 53.33230 -35.46024 35922 ft 499 kts 266°
2026-04-23 11:18 53.32607 -35.57507 35932 ft 499 kts 266°
2026-04-23 11:19 53.31975 -35.68965 35937 ft 498 kts 265°
2026-04-23 11:19 53.31329 -35.80463 35936 ft 498 kts 265°
2026-04-23 11:20 53.30671 -35.91974 35937 ft 497 kts 265°
2026-04-23 11:20 53.30009 -36.03363 35939 ft 497 kts 265°
2026-04-23 11:21 53.29333 -36.14809 35947 ft 497 kts 265°
2026-04-23 11:21 53.28645 -36.26262 35949 ft 495 kts 265°
2026-04-23 11:22 53.27951 -36.37631 35962 ft 495 kts 265°
2026-04-23 11:22 53.27246 -36.49005 35954 ft 494 kts 265°
2026-04-23 11:23 53.26530 -36.60365 35955 ft 494 kts 265°
2026-04-23 11:23 53.25805 -36.71704 35959 ft 492 kts 264°
2026-04-23 11:24 53.25073 -36.82991 35953 ft 492 kts 264°
2026-04-23 11:24 53.24327 -36.94299 35967 ft 491 kts 264°
2026-04-23 11:25 53.23573 -37.05578 35955 ft 492 kts 264°
2026-04-23 11:25 53.22812 -37.16804 35956 ft 491 kts 264°
2026-04-23 11:26 53.22036 -37.28085 35966 ft 490 kts 264°
2026-04-23 11:26 53.21252 -37.39329 35963 ft 489 kts 264°
2026-04-23 11:27 53.20459 -37.50529 35975 ft 489 kts 264°
2026-04-23 11:27 53.19658 -37.61716 35988 ft 489 kts 264°
2026-04-23 11:28 53.18843 -37.72925 35974 ft 488 kts 263°
2026-04-23 11:28 53.18023 -37.84067 35982 ft 488 kts 263°
2026-04-23 11:29 53.17188 -37.95260 35988 ft 487 kts 263°
2026-04-23 11:29 53.16344 -38.06441 36008 ft 488 kts 263°
2026-04-23 11:30 53.15494 -38.17543 36001 ft 487 kts 263°
2026-04-23 11:30 53.14633 -38.28664 35996 ft 486 kts 263°
2026-04-23 11:31 53.13758 -38.39814 35997 ft 487 kts 263°
2026-04-23 11:31 53.12873 -38.50958 35996 ft 487 kts 263°
2026-04-23 11:32 53.11980 -38.62069 35989 ft 488 kts 263°
2026-04-23 11:32 53.11072 -38.73236 35985 ft 488 kts 262°
2026-04-23 11:33 53.10175 -38.84138 35984 ft 487 kts 262°
2026-04-23 11:33 53.09267 -38.95048 36000 ft 487 kts 262°
2026-04-23 11:34 53.08332 -39.06152 35992 ft 487 kts 262°
2026-04-23 11:34 53.07377 -39.17367 35998 ft 502 kts 262°
2026-04-23 11:35 53.06376 -39.28984 35998 ft 516 kts 262°
2026-04-23 11:35 53.05343 -39.40833 35999 ft 522 kts 263°
2026-04-23 11:36 53.04293 -39.52731 36002 ft 522 kts 263°
2026-04-23 11:36 53.03229 -39.64643 36002 ft 522 kts 263°
2026-04-23 11:37 53.02160 -39.76482 35995 ft 521 kts 262°
2026-04-23 11:37 53.01078 -39.88334 35995 ft 523 kts 262°
2026-04-23 11:38 52.99849 -40.00145 36022 ft 524 kts 258°
2026-04-23 11:38 52.98145 -40.11898 36018 ft 524 kts 257°
2026-04-23 11:39 52.96395 -40.23609 36009 ft 525 kts 257°
2026-04-23 11:39 52.94626 -40.35273 36007 ft 523 kts 257°
2026-04-23 11:40 52.92841 -40.46915 36011 ft 523 kts 257°
2026-04-23 11:40 52.91047 -40.58512 36008 ft 524 kts 257°
2026-04-23 11:41 52.89234 -40.70127 36007 ft 525 kts 256°
2026-04-23 11:41 52.87402 -40.81780 35999 ft 524 kts 256°
2026-04-23 11:42 52.85561 -40.93407 36004 ft 525 kts 256°
2026-04-23 11:42 52.83717 -41.04961 36004 ft 523 kts 256°
2026-04-23 11:43 52.81859 -41.16530 36009 ft 524 kts 256°
2026-04-23 11:43 52.79982 -41.28132 36006 ft 524 kts 256°
2026-04-23 11:44 52.78098 -41.39695 36011 ft 524 kts 256°
2026-04-23 11:44 52.76203 -41.51248 36016 ft 523 kts 257°
2026-04-23 11:45 52.74289 -41.62840 36017 ft 523 kts 257°
2026-04-23 11:45 52.72377 -41.74339 36011 ft 523 kts 256°
2026-04-23 11:46 52.70455 -41.85826 36019 ft 524 kts 256°
2026-04-23 11:46 52.68513 -41.97355 36022 ft 524 kts 256°
2026-04-23 11:47 52.66566 -42.08829 36018 ft 523 kts 256°
2026-04-23 11:47 52.64596 -42.20373 36020 ft 523 kts 256°
2026-04-23 11:48 52.62626 -42.31837 36021 ft 523 kts 256°
2026-04-23 11:48 52.60648 -42.43270 36015 ft 523 kts 256°
2026-04-23 11:49 52.58651 -42.54745 36019 ft 523 kts 256°
2026-04-23 11:49 52.56657 -42.66126 36011 ft 522 kts 256°
2026-04-23 11:50 52.54641 -42.77556 36011 ft 523 kts 256°
2026-04-23 11:50 52.52619 -42.88953 36011 ft 523 kts 256°
2026-04-23 11:51 52.50577 -43.00388 36016 ft 522 kts 256°
2026-04-23 11:51 52.48539 -43.11726 36013 ft 522 kts 256°
2026-04-23 11:52 52.46484 -43.23095 36014 ft 522 kts 256°
2026-04-23 11:52 52.44544 -43.33754 36012 ft 522 kts 256°
2026-04-23 11:52 52.43511 -43.39411 35756 ft 523 kts 256°
2026-04-23 11:53 52.42467 -43.45108 35981 ft 523 kts 256°
2026-04-23 11:53 52.40374 -43.56473 36016 ft 524 kts 256°
2026-04-23 11:54 52.38264 -43.67857 36016 ft 523 kts 255°
2026-04-23 11:54 52.36153 -43.79183 36025 ft 523 kts 256°
2026-04-23 11:55 52.34036 -43.90472 36025 ft 524 kts 256°
2026-04-23 11:55 52.31907 -44.01751 36016 ft 522 kts 256°
2026-04-23 11:56 52.29767 -44.13028 36021 ft 521 kts 256°
2026-04-23 11:56 52.27612 -44.24308 36015 ft 520 kts 256°
2026-04-23 11:57 52.25463 -44.35499 36018 ft 519 kts 256°
2026-04-23 11:57 52.23294 -44.46720 36010 ft 519 kts 256°
2026-04-23 11:58 52.21132 -44.57848 36004 ft 519 kts 256°
2026-04-23 11:58 52.18953 -44.68990 36003 ft 519 kts 255°
2026-04-23 11:59 52.16750 -44.80197 36003 ft 519 kts 255°
2026-04-23 11:59 52.14554 -44.91301 36002 ft 518 kts 255°
2026-04-23 12:00 52.12343 -45.02418 36005 ft 519 kts 256°
2026-04-23 12:00 52.10106 -45.13601 36013 ft 519 kts 255°
2026-04-23 12:01 52.07884 -45.24644 36002 ft 517 kts 255°
2026-04-23 12:01 52.05636 -45.35753 36009 ft 519 kts 255°
2026-04-23 12:02 52.03394 -45.46773 35996 ft 518 kts 255°
2026-04-23 12:02 52.01122 -45.57877 35995 ft 518 kts 255°
2026-04-23 12:03 51.98862 -45.68863 36004 ft 517 kts 254°
2026-04-23 12:03 51.96575 -45.79917 36002 ft 517 kts 254°
2026-04-23 12:04 51.94286 -45.90916 36014 ft 518 kts 254°
2026-04-23 12:04 51.91988 -46.01904 35991 ft 517 kts 254°
2026-04-23 12:05 51.89688 -46.12838 35992 ft 517 kts 253°
2026-04-23 12:05 51.87366 -46.23819 35984 ft 517 kts 253°
2026-04-23 12:06 51.85036 -46.34777 35991 ft 518 kts 253°
2026-04-23 12:06 51.81508 -46.51259 35976 ft 519 kts 253°
2026-04-23 12:07 51.79149 -46.62204 35969 ft 519 kts 253°
2026-04-23 12:07 51.76770 -46.73182 35957 ft 519 kts 252°
2026-04-23 12:08 51.74386 -46.84132 35962 ft 520 kts 252°
2026-04-23 12:08 51.71999 -46.95032 35961 ft 518 kts 252°
2026-04-23 12:09 51.69603 -47.05911 35939 ft 518 kts 252°
2026-04-23 12:09 51.67181 -47.16859 35947 ft 520 kts 252°
2026-04-23 12:10 51.64760 -47.27741 35952 ft 521 kts 252°
2026-04-23 12:10 51.62309 -47.38699 35949 ft 522 kts 252°
2026-04-23 12:11 51.59857 -47.49607 35941 ft 520 kts 252°
2026-04-23 12:11 51.57399 -47.60483 35942 ft 521 kts 251°
2026-04-23 12:12 51.54924 -47.71383 35922 ft 520 kts 251°
2026-04-23 12:12 51.52446 -47.82236 35929 ft 522 kts 251°
2026-04-23 12:13 51.49952 -47.93105 35922 ft 522 kts 251°
2026-04-23 12:13 51.47442 -48.03983 35926 ft 523 kts 250°
2026-04-23 12:14 51.44917 -48.14877 35922 ft 524 kts 250°
2026-04-23 12:14 51.42375 -48.25784 35912 ft 523 kts 250°
2026-04-23 12:15 51.39835 -48.36626 35918 ft 523 kts 250°
2026-04-23 12:15 51.37282 -48.47473 35911 ft 524 kts 250°
2026-04-23 12:16 51.34698 -48.58393 35908 ft 526 kts 250°
2026-04-23 12:16 51.32116 -48.69251 35906 ft 526 kts 249°
2026-04-23 12:17 51.29507 -48.80167 35908 ft 525 kts 249°
2026-04-23 12:17 51.26908 -48.90992 35898 ft 526 kts 249°
2026-04-23 12:18 51.24290 -49.01836 35891 ft 526 kts 249°
2026-04-23 12:18 51.21655 -49.12701 35878 ft 528 kts 249°
2026-04-23 12:19 51.19002 -49.23579 35878 ft 528 kts 249°
2026-04-23 12:19 51.16342 -49.34440 35860 ft 529 kts 249°
2026-04-23 12:20 51.13657 -49.45343 35868 ft 530 kts 249°
2026-04-23 12:20 51.10970 -49.56205 35867 ft 531 kts 249°
2026-04-23 12:21 51.08269 -49.67068 35847 ft 532 kts 248°
2026-04-23 12:21 51.05554 -49.77934 35846 ft 531 kts 247°
2026-04-23 12:22 51.02829 -49.88788 35831 ft 532 kts 247°
2026-04-23 12:22 51.00096 -49.99675 35827 ft 533 kts 248°
2026-04-23 12:23 50.97465 -50.10606 35816 ft 534 kts 248°
2026-04-23 12:23 50.94816 -50.21605 35816 ft 535 kts 248°
2026-04-23 12:24 50.92168 -50.32552 35808 ft 535 kts 248°
2026-04-23 12:24 50.89502 -50.43518 35809 ft 536 kts 248°
2026-04-23 12:25 50.86813 -50.54524 35797 ft 537 kts 247°
2026-04-23 12:25 50.84102 -50.65566 35793 ft 538 kts 246°
2026-04-23 12:26 50.81393 -50.76547 35781 ft 539 kts 246°
2026-04-23 12:26 50.78670 -50.87525 35780 ft 539 kts 246°
2026-04-23 12:27 50.75937 -50.98495 35772 ft 540 kts 246°
2026-04-23 12:27 50.73183 -51.09493 35760 ft 540 kts 246°
2026-04-23 12:28 50.70426 -51.20448 35752 ft 541 kts 245°
2026-04-23 12:28 50.67667 -51.31361 35752 ft 540 kts 245°
2026-04-23 12:29 50.64881 -51.42324 35743 ft 541 kts 245°
2026-04-23 12:29 50.62071 -51.53325 35740 ft 542 kts 245°
2026-04-23 12:30 50.59269 -51.64245 35745 ft 543 kts 245°
2026-04-23 12:30 50.56443 -51.75207 35735 ft 544 kts 244°
2026-04-23 12:31 50.53604 -51.86166 35725 ft 543 kts 244°
2026-04-23 12:31 50.50753 -51.97113 35721 ft 544 kts 243°
2026-04-23 12:32 50.47363 -52.07610 35724 ft 541 kts 237°
2026-04-23 12:32 50.43778 -52.17965 35727 ft 539 kts 237°
2026-04-23 12:33 50.40194 -52.28265 35728 ft 542 kts 237°
2026-04-23 12:33 50.36612 -52.38517 35732 ft 543 kts 237°
2026-04-23 12:34 50.32998 -52.48819 35729 ft 540 kts 236°
2026-04-23 12:34 50.29382 -52.59085 35722 ft 542 kts 236°
2026-04-23 12:35 50.25749 -52.69353 35712 ft 542 kts 236°
2026-04-23 12:35 50.22091 -52.79655 35707 ft 543 kts 236°
2026-04-23 12:36 50.18441 -52.89893 35692 ft 542 kts 235°
2026-04-23 12:36 50.14787 -53.00098 35693 ft 543 kts 235°
2026-04-23 12:37 50.11089 -53.10384 35690 ft 545 kts 234°
2026-04-23 12:37 50.07391 -53.20633 35692 ft 545 kts 235°
2026-04-23 12:38 50.03675 -53.30892 35698 ft 543 kts 234°
2026-04-23 12:38 49.99969 -53.41081 35692 ft 547 kts 234°
2026-04-23 12:39 49.96249 -53.51264 35700 ft 547 kts 234°
2026-04-23 12:39 49.92519 -53.61443 35715 ft 544 kts 234°
2026-04-23 12:40 49.88754 -53.71674 35705 ft 539 kts 233°
2026-04-23 12:40 49.85042 -53.81718 35701 ft 541 kts 233°
2026-04-23 12:41 49.81305 -53.91790 35694 ft 539 kts 233°
2026-04-23 12:41 49.77563 -54.01839 35713 ft 541 kts 233°
2026-04-23 12:42 49.73827 -54.11834 35705 ft 538 kts 233°
2026-04-23 12:42 49.70103 -54.21757 35707 ft 540 kts 233°
2026-04-23 12:43 49.66357 -54.31701 35720 ft 536 kts 233°
2026-04-23 12:43 49.62591 -54.41660 35708 ft 538 kts 233°
2026-04-23 12:44 49.58843 -54.51536 35721 ft 536 kts 233°
2026-04-23 12:44 49.55074 -54.61425 35722 ft 536 kts 233°
2026-04-23 12:45 49.51288 -54.71329 35713 ft 535 kts 232°
2026-04-23 12:45 49.47478 -54.81245 35712 ft 538 kts 233°
2026-04-23 12:46 49.43704 -54.91042 35704 ft 539 kts 232°
2026-04-23 12:46 49.39888 -55.00908 35709 ft 536 kts 232°
2026-04-23 12:47 49.36280 -55.10200 35703 ft 537 kts 233°
2026-04-23 12:47 49.32477 -55.19965 35704 ft 535 kts 232°
2026-04-23 12:48 49.28646 -55.29759 35707 ft 534 kts 233°
2026-04-23 12:48 49.24808 -55.39536 35709 ft 536 kts 232°
2026-04-23 12:49 49.20991 -55.49227 35693 ft 535 kts 232°
2026-04-23 12:49 49.17132 -55.58984 35705 ft 537 kts 232°
2026-04-23 12:50 49.13269 -55.68720 35699 ft 534 kts 232°
2026-04-23 12:50 49.09404 -55.78419 35691 ft 537 kts 232°
2026-04-23 12:51 49.05519 -55.88138 35689 ft 535 kts 232°
2026-04-23 12:51 49.01644 -55.97792 35694 ft 538 kts 232°
2026-04-23 12:52 48.97743 -56.07483 35690 ft 535 kts 232°
2026-04-23 12:52 48.93839 -56.17139 35707 ft 537 kts 232°
2026-04-23 12:53 48.89901 -56.26848 35701 ft 538 kts 232°
2026-04-23 12:53 48.85974 -56.36494 35728 ft 536 kts 232°
2026-04-23 12:54 48.82055 -56.46087 35737 ft 536 kts 232°
2026-04-23 12:54 48.78118 -56.55686 35741 ft 536 kts 232°
2026-04-23 12:55 48.74282 -56.65007 35743 ft 536 kts 231°
2026-04-23 12:55 48.70292 -56.74667 35730 ft 535 kts 231°
2026-04-23 12:56 48.66354 -56.84172 35721 ft 532 kts 231°
2026-04-23 12:56 48.62417 -56.93634 35725 ft 534 kts 231°
2026-04-23 12:57 48.58451 -57.03133 35683 ft 536 kts 231°
2026-04-23 12:57 48.56479 -57.07846 35956 ft 534 kts 231°
2026-04-23 12:57 48.54491 -57.12588 35761 ft 534 kts 231°
2026-04-23 12:58 48.50542 -57.21984 35744 ft 531 kts 231°
2026-04-23 12:58 48.46563 -57.31416 35750 ft 532 kts 232°
2026-04-23 12:59 48.42588 -57.40804 35753 ft 532 kts 232°
2026-04-23 12:59 48.38596 -57.50201 35740 ft 533 kts 232°
2026-04-23 13:00 48.34600 -57.59574 35751 ft 534 kts 232°
2026-04-23 13:00 48.30650 -57.68811 35749 ft 531 kts 231°
2026-04-23 13:01 48.26668 -57.78088 35747 ft 530 kts 232°
2026-04-23 13:01 48.22642 -57.87432 35741 ft 533 kts 232°
2026-04-23 13:02 48.18620 -57.96739 35741 ft 532 kts 232°
2026-04-23 13:02 48.14607 -58.05994 35743 ft 531 kts 232°
2026-04-23 13:03 48.10603 -58.15195 35752 ft 531 kts 232°
2026-04-23 13:03 48.06572 -58.24426 35769 ft 531 kts 232°
2026-04-23 13:04 48.02542 -58.33623 35788 ft 531 kts 232°
2026-04-23 13:04 47.98483 -58.42857 35779 ft 531 kts 232°
2026-04-23 13:05 47.94420 -58.52069 35793 ft 530 kts 232°
2026-04-23 13:05 47.90379 -58.61200 35806 ft 529 kts 233°
2026-04-23 13:06 47.84346 -58.74773 35799 ft 528 kts 232°
2026-04-23 13:07 47.80304 -58.83829 35795 ft 529 kts 232°
2026-04-23 13:07 47.76259 -58.92866 35813 ft 527 kts 232°
2026-04-23 13:08 47.72184 -59.01934 35811 ft 527 kts 232°
2026-04-23 13:08 47.68127 -59.10935 35829 ft 525 kts 233°
2026-04-23 13:09 47.64070 -59.19905 35840 ft 526 kts 233°
2026-04-23 13:09 47.60008 -59.28859 35864 ft 525 kts 233°
2026-04-23 13:10 47.55950 -59.37774 35878 ft 525 kts 233°
2026-04-23 13:10 47.51868 -59.46712 35878 ft 524 kts 233°
2026-04-23 13:11 47.47802 -59.55587 35889 ft 524 kts 233°
2026-04-23 13:11 47.43737 -59.64430 35895 ft 523 kts 233°
2026-04-23 13:12 47.39663 -59.73266 35899 ft 522 kts 233°
2026-04-23 13:12 47.35585 -59.82082 35900 ft 522 kts 233°
2026-04-23 13:13 47.31495 -59.90894 35895 ft 522 kts 233°
2026-04-23 13:13 47.27435 -59.99614 35915 ft 521 kts 233°
2026-04-23 13:14 47.23329 -60.08405 35910 ft 522 kts 233°
2026-04-23 13:14 47.19241 -60.17131 35916 ft 521 kts 233°
2026-04-23 13:15 47.15136 -60.25864 35922 ft 519 kts 234°
2026-04-23 13:15 47.11048 -60.34533 35916 ft 521 kts 234°
2026-04-23 13:16 47.06916 -60.43270 35919 ft 521 kts 234°
2026-04-23 13:16 47.02795 -60.51954 35915 ft 520 kts 234°
2026-04-23 13:17 46.98682 -60.60597 35918 ft 519 kts 234°
2026-04-23 13:17 46.94549 -60.69254 35913 ft 519 kts 233°
2026-04-23 13:18 46.90421 -60.77872 35907 ft 518 kts 233°
2026-04-23 13:18 46.86299 -60.86451 35912 ft 517 kts 233°
2026-04-23 13:19 46.82155 -60.95052 35920 ft 517 kts 233°
2026-04-23 13:19 46.78021 -61.03602 35933 ft 516 kts 234°
2026-04-23 13:20 46.73893 -61.12116 35931 ft 517 kts 234°
2026-04-23 13:20 46.69766 -61.20602 35928 ft 515 kts 234°
2026-04-23 13:21 46.65639 -61.29060 35932 ft 515 kts 234°
2026-04-23 13:21 46.61499 -61.37521 35933 ft 514 kts 234°
2026-04-23 13:22 46.57358 -61.45956 35933 ft 514 kts 234°
2026-04-23 13:22 46.53223 -61.54356 35934 ft 515 kts 234°
2026-04-23 13:23 46.49064 -61.62778 35938 ft 512 kts 234°
2026-04-23 13:23 46.44919 -61.71148 35939 ft 513 kts 233°
2026-04-23 13:24 46.40837 -61.79365 35944 ft 512 kts 233°
2026-04-23 13:24 46.36666 -61.87735 35946 ft 512 kts 233°
2026-04-23 13:25 46.32500 -61.96073 35950 ft 512 kts 234°
2026-04-23 13:25 46.28347 -62.04358 35947 ft 512 kts 234°
2026-04-23 13:26 46.24176 -62.12655 35951 ft 511 kts 234°
2026-04-23 13:26 46.19999 -62.20940 35945 ft 512 kts 234°
2026-04-23 13:27 46.15835 -62.29174 35940 ft 512 kts 234°
2026-04-23 13:27 46.11636 -62.37455 35938 ft 512 kts 234°
2026-04-23 13:28 46.07437 -62.45709 35936 ft 513 kts 234°
2026-04-23 13:28 46.03334 -62.53751 35932 ft 513 kts 234°
2026-04-23 13:29 45.99108 -62.62013 35928 ft 513 kts 234°
2026-04-23 13:29 45.94867 -62.70278 35928 ft 513 kts 233°
2026-04-23 13:30 45.90638 -62.78495 35930 ft 514 kts 234°
2026-04-23 13:30 45.86377 -62.86750 35931 ft 514 kts 234°
2026-04-23 13:31 45.82123 -62.94969 35938 ft 514 kts 234°
2026-04-23 13:31 45.77847 -63.03205 35935 ft 514 kts 234°
2026-04-23 13:32 45.73597 -63.11368 35937 ft 513 kts 234°
2026-04-23 13:32 45.69317 -63.19564 35927 ft 512 kts 234°
2026-04-23 13:33 45.65062 -63.27689 35926 ft 513 kts 234°
2026-04-23 13:33 45.60803 -63.35799 35925 ft 512 kts 234°
2026-04-23 13:34 45.56522 -63.43927 35915 ft 513 kts 234°
2026-04-23 13:34 45.52254 -63.52007 35905 ft 512 kts 234°
2026-04-23 13:35 45.47964 -63.60106 35903 ft 512 kts 234°
2026-04-23 13:35 45.43677 -63.68174 35912 ft 511 kts 234°
2026-04-23 13:36 45.39393 -63.76217 35920 ft 511 kts 234°
2026-04-23 13:36 45.35100 -63.84252 35924 ft 511 kts 234°
2026-04-23 13:37 45.30811 -63.92257 35928 ft 510 kts 234°
2026-04-23 13:37 45.26511 -64.00262 35939 ft 510 kts 234°
2026-04-23 13:38 45.22225 -64.08215 35943 ft 510 kts 234°
2026-04-23 13:38 45.17934 -64.16158 35942 ft 510 kts 234°
2026-04-23 13:39 45.13616 -64.24128 35936 ft 510 kts 234°
2026-04-23 13:39 45.09293 -64.32085 35922 ft 510 kts 234°
2026-04-23 13:40 45.04975 -64.40009 35915 ft 510 kts 234°
2026-04-23 13:40 45.00657 -64.47913 35915 ft 509 kts 234°
2026-04-23 13:41 44.96354 -64.55767 35912 ft 509 kts 234°
2026-04-23 13:41 44.92039 -64.63622 35914 ft 509 kts 234°
2026-04-23 13:42 44.87690 -64.71516 35922 ft 510 kts 234°
2026-04-23 13:42 44.83337 -64.79395 35923 ft 510 kts 234°
2026-04-23 13:43 44.79010 -64.87206 35928 ft 509 kts 234°
2026-04-23 13:43 44.74655 -64.95048 35927 ft 509 kts 234°
2026-04-23 13:44 44.70314 -65.02840 35919 ft 508 kts 234°
2026-04-23 13:44 44.65949 -65.10658 35908 ft 508 kts 234°
2026-04-23 13:45 44.61596 -65.18430 35913 ft 508 kts 234°
2026-04-23 13:45 44.57230 -65.26205 35906 ft 508 kts 234°
2026-04-23 13:46 44.52872 -65.33946 35906 ft 508 kts 234°
2026-04-23 13:46 44.48495 -65.41698 35904 ft 508 kts 235°
2026-04-23 13:47 44.44145 -65.49383 35908 ft 507 kts 235°
2026-04-23 13:47 44.39752 -65.57122 35903 ft 507 kts 235°
2026-04-23 13:48 44.35391 -65.64785 35900 ft 507 kts 235°
2026-04-23 13:48 44.30969 -65.72534 35912 ft 507 kts 234°
2026-04-23 13:49 44.26573 -65.80217 35916 ft 507 kts 234°
2026-04-23 13:49 44.22175 -65.87882 35908 ft 506 kts 234°
2026-04-23 13:50 44.17782 -65.95519 35911 ft 507 kts 234°
2026-04-23 13:50 44.13392 -66.03131 35922 ft 507 kts 235°
2026-04-23 13:51 44.08978 -66.10764 35929 ft 506 kts 235°
2026-04-23 13:51 44.04570 -66.18366 35930 ft 507 kts 235°
2026-04-23 13:52 44.00151 -66.25967 35931 ft 507 kts 235°
2026-04-23 13:52 43.95726 -66.33558 35931 ft 506 kts 235°
2026-04-23 13:53 43.91320 -66.41099 35937 ft 506 kts 235°
2026-04-23 13:53 43.86914 -66.48617 35912 ft 505 kts 235°
2026-04-23 13:54 43.82495 -66.56140 35914 ft 506 kts 235°
2026-04-23 13:54 43.78048 -66.63690 35891 ft 505 kts 236°
2026-04-23 13:55 43.73617 -66.71194 35891 ft 505 kts 235°
2026-04-23 13:55 43.69179 -66.78690 35896 ft 505 kts 235°
2026-04-23 13:56 43.64722 -66.86197 35888 ft 504 kts 235°
2026-04-23 13:56 43.60307 -66.93616 35891 ft 504 kts 235°
2026-04-23 13:57 43.55970 -67.01193 35889 ft 500 kts 242°
2026-04-23 13:57 43.53105 -67.09733 35897 ft 489 kts 256°
2026-04-23 13:58 43.50930 -67.18546 35886 ft 490 kts 255°
2026-04-23 13:58 43.48620 -67.27364 35891 ft 488 kts 255°
2026-04-23 13:59 43.46243 -67.36104 35894 ft 490 kts 254°
2026-04-23 13:59 43.43816 -67.44836 35889 ft 489 kts 254°
2026-04-23 14:00 43.41786 -67.52052 35903 ft 489 kts 254°
2026-04-23 14:00 43.38920 -67.62151 35892 ft 489 kts 254°
2026-04-23 14:01 43.36425 -67.70882 35902 ft 489 kts 253°
2026-04-23 14:01 43.33940 -67.79536 35895 ft 488 kts 253°
2026-04-23 14:02 43.31462 -67.88132 35900 ft 487 kts 254°
2026-04-23 14:02 43.28954 -67.96797 35886 ft 488 kts 254°
2026-04-23 14:03 43.26452 -68.05410 35893 ft 485 kts 254°
2026-04-23 14:03 43.23947 -68.14003 35887 ft 485 kts 254°
2026-04-23 14:04 43.21447 -68.22551 35906 ft 486 kts 254°
2026-04-23 14:04 43.18937 -68.31103 35907 ft 486 kts 254°
2026-04-23 14:05 43.16423 -68.39639 35897 ft 486 kts 254°
2026-04-23 14:05 43.13903 -68.48169 35912 ft 487 kts 255°
2026-04-23 14:06 43.11360 -68.56742 35898 ft 484 kts 255°
2026-04-23 14:06 43.08834 -68.65234 35894 ft 484 kts 254°
2026-04-23 14:07 43.06277 -68.73804 35904 ft 486 kts 254°
2026-04-23 14:07 43.02585 -68.86123 35906 ft 486 kts 255°
2026-04-23 14:08 43.00023 -68.94634 35901 ft 483 kts 255°
2026-04-23 14:08 42.97463 -69.03117 35916 ft 487 kts 255°
2026-04-23 14:09 42.94904 -69.11565 35919 ft 484 kts 255°
2026-04-23 14:09 42.92359 -69.19933 35896 ft 480 kts 255°
2026-04-23 14:10 42.89798 -69.28338 35910 ft 479 kts 255°
2026-04-23 14:10 42.87227 -69.36752 35906 ft 484 kts 255°
2026-04-23 14:11 42.84656 -69.45125 35895 ft 480 kts 255°
2026-04-23 14:11 42.82057 -69.53572 35917 ft 479 kts 256°
2026-04-23 14:12 42.79480 -69.61914 35886 ft 480 kts 256°
2026-04-23 14:12 42.76897 -69.70258 35919 ft 482 kts 255°
2026-04-23 14:13 42.74298 -69.78617 35908 ft 480 kts 255°
2026-04-23 14:13 42.71697 -69.86960 35916 ft 481 kts 256°
2026-04-23 14:14 42.69091 -69.95290 35909 ft 477 kts 256°
2026-04-23 14:14 42.66492 -70.03578 35939 ft 479 kts 256°
2026-04-23 14:15 42.63876 -70.11829 35940 ft 479 kts 256°
2026-04-23 14:15 42.61224 -70.20163 35918 ft 481 kts 256°
2026-04-23 14:16 42.58580 -70.28438 35931 ft 477 kts 256°
2026-04-23 14:16 42.55941 -70.36675 35915 ft 478 kts 256°
2026-04-23 14:17 42.53300 -70.44887 35923 ft 476 kts 257°
2026-04-23 14:17 42.50641 -70.53139 35915 ft 477 kts 257°
2026-04-23 14:18 42.47981 -70.61366 35928 ft 474 kts 257°
2026-04-23 14:18 42.45327 -70.69570 35930 ft 478 kts 257°
2026-04-23 14:19 42.42648 -70.77819 35958 ft 479 kts 257°
2026-04-23 14:19 42.39969 -70.86038 35937 ft 476 kts 257°
2026-04-23 14:20 42.37281 -70.94263 35945 ft 478 kts 257°
2026-04-23 14:20 42.34865 -71.02593 35957 ft 469 kts 263°
2026-04-23 14:21 42.32896 -71.10924 35930 ft 468 kts 264°
2026-04-23 14:21 42.30909 -71.19305 35936 ft 468 kts 263°
2026-04-23 14:22 42.28915 -71.27670 35935 ft 465 kts 263°
2026-04-23 14:22 42.26926 -71.35982 35761 ft 467 kts 263°
2026-04-23 14:23 42.25931 -71.40133 35911 ft 470 kts 263°
2026-04-23 14:23 42.24913 -71.44374 35932 ft 474 kts 263°
2026-04-23 14:23 42.22888 -71.52751 35948 ft 469 kts 263°
2026-04-23 14:24 42.20860 -71.61121 35945 ft 466 kts 263°
2026-04-23 14:24 42.18830 -71.69486 35963 ft 473 kts 263°
2026-04-23 14:25 42.16769 -71.77929 35969 ft 471 kts 263°
2026-04-23 14:25 42.14734 -71.86240 35982 ft 474 kts 263°
2026-04-23 14:26 42.12666 -71.94651 35958 ft 473 kts 263°
2026-04-23 14:26 42.10590 -72.03068 35967 ft 474 kts 263°
2026-04-23 14:27 42.08499 -72.11515 35966 ft 473 kts 263°
2026-04-23 14:27 42.06413 -72.19914 35956 ft 477 kts 263°
2026-04-23 14:28 42.04336 -72.28240 35965 ft 477 kts 263°
2026-04-23 14:28 42.02233 -72.36643 35973 ft 477 kts 263°
2026-04-23 14:29 42.00109 -72.45095 35970 ft 473 kts 263°
2026-04-23 14:29 41.98166 -72.52813 35974 ft 477 kts 263°
2026-04-23 14:30 41.96038 -72.61221 35973 ft 475 kts 263°
2026-04-23 14:30 41.93902 -72.69643 35983 ft 475 kts 263°
2026-04-23 14:31 41.91881 -72.78104 35986 ft 474 kts 264°
2026-04-23 14:31 41.89900 -72.86448 35981 ft 468 kts 264°
2026-04-23 14:32 41.88916 -72.90536 35956 ft 451 kts 264°
2026-04-23 14:32 41.87969 -72.94466 35955 ft 434 kts 265°
2026-04-23 14:32 41.86142 -73.02119 35953 ft 436 kts 265°
2026-04-23 14:33 41.84499 -73.08976 35951 ft 438 kts 264°
2026-04-23 14:33 41.82741 -73.16257 35949 ft 437 kts 264°
2026-04-23 14:34 41.80857 -73.24040 35954 ft 441 kts 264°
2026-04-23 14:34 41.78961 -73.31829 35947 ft 437 kts 264°
2026-04-23 14:35 41.77069 -73.39580 35952 ft 439 kts 264°
2026-04-23 14:35 41.75161 -73.47378 35958 ft 442 kts 264°
2026-04-23 14:36 41.73239 -73.55177 35855 ft 432 kts 264°
2026-04-23 14:36 41.72300 -73.58981 35125 ft 436 kts 265°
2026-04-23 14:36 41.71354 -73.62833 34301 ft 439 kts 264°
2026-04-23 14:37 41.70392 -73.66723 33477 ft 441 kts 264°
2026-04-23 14:37 41.69417 -73.70633 32689 ft 446 kts 263°
2026-04-23 14:37 41.68430 -73.74580 31923 ft 452 kts 263°
2026-04-23 14:37 41.67429 -73.78574 31179 ft 456 kts 263°
2026-04-23 14:38 41.66421 -73.82561 30455 ft 457 kts 262°
2026-04-23 14:38 41.65398 -73.86562 29705 ft 456 kts 262°
2026-04-23 14:38 41.64360 -73.90576 28974 ft 455 kts 261°
2026-04-23 14:38 41.63320 -73.94547 28257 ft 457 kts 261°
2026-04-23 14:39 41.62266 -73.98548 27563 ft 459 kts 260°
2026-04-23 14:39 41.61193 -74.02581 26874 ft 458 kts 260°
2026-04-23 14:39 41.60122 -74.06564 26207 ft 459 kts 259°
2026-04-23 14:39 41.59028 -74.10588 25543 ft 459 kts 258°
2026-04-23 14:40 41.57929 -74.14609 24903 ft 467 kts 258°
2026-04-23 14:40 41.56818 -74.18637 24279 ft 462 kts 258°
2026-04-23 14:40 41.55695 -74.22652 23664 ft 458 kts 257°
2026-04-23 14:40 41.54564 -74.26635 23074 ft 454 kts 257°
2026-04-23 14:41 41.53433 -74.30526 22551 ft 447 kts 255°
2026-04-23 14:41 41.51970 -74.34226 22418 ft 438 kts 245°
2026-04-23 14:41 41.50134 -74.37383 22389 ft 428 kts 236°
2026-04-23 14:41 41.47951 -74.40059 22364 ft 420 kts 227°
2026-04-23 14:42 41.45496 -74.42213 22150 ft 418 kts 217°
2026-04-23 14:42 41.42751 -74.43829 21687 ft 444 kts 207°
2026-04-23 14:42 41.39742 -74.44855 21057 ft 453 kts 196°
2026-04-23 14:42 41.36576 -74.45232 20396 ft 457 kts 188°
2026-04-23 14:43 41.33418 -74.45486 19738 ft 451 kts 191°
2026-04-23 14:43 41.30297 -74.45970 19106 ft 445 kts 195°
2026-04-23 14:43 41.27254 -74.46654 18489 ft 439 kts 198°
2026-04-23 14:43 41.24260 -74.47482 17844 ft 435 kts 199°
2026-04-23 14:44 41.21319 -74.48414 17210 ft 430 kts 201°
2026-04-23 14:44 41.18395 -74.49426 16559 ft 426 kts 202°
2026-04-23 14:44 41.15574 -74.50468 15924 ft 422 kts 203°
2026-04-23 14:44 41.12750 -74.51553 15293 ft 418 kts 203°
2026-04-23 14:45 41.09996 -74.52644 14671 ft 414 kts 204°
2026-04-23 14:45 41.07200 -74.53652 14030 ft 415 kts 197°
2026-04-23 14:45 41.04339 -74.54098 13407 ft 416 kts 190°
2026-04-23 14:45 41.01441 -74.54362 12748 ft 414 kts 189°
2026-04-23 14:46 40.98565 -74.54616 12084 ft 411 kts 189°
2026-04-23 14:46 40.95685 -74.54872 11432 ft 408 kts 189°
2026-04-23 14:46 40.92878 -74.55125 10817 ft 405 kts 189°
2026-04-23 14:46 40.90109 -74.55374 10603 ft 389 kts 189°
2026-04-23 14:47 40.87527 -74.55605 10499 ft 373 kts 189°
2026-04-23 14:47 40.84978 -74.55835 10361 ft 359 kts 189°
2026-04-23 14:47 40.82507 -74.55972 10196 ft 349 kts 185°
2026-04-23 14:47 40.80085 -74.55871 10044 ft 337 kts 183°
2026-04-23 14:48 40.77767 -74.55743 9683 ft 335 kts 182°
2026-04-23 14:48 40.75436 -74.55615 9422 ft 328 kts 183°
2026-04-23 14:48 40.73198 -74.55490 9409 ft 313 kts 183°
2026-04-23 14:48 40.71074 -74.55375 9305 ft 302 kts 183°
2026-04-23 14:49 40.68971 -74.55266 8960 ft 302 kts 183°
2026-04-23 14:49 40.66870 -74.55156 8656 ft 300 kts 183°
2026-04-23 14:49 40.64775 -74.54986 8368 ft 300 kts 174°
2026-04-23 14:49 40.62728 -74.54344 8021 ft 301 kts 168°
2026-04-23 14:50 40.60696 -74.53616 7676 ft 302 kts 168°
2026-04-23 14:50 40.58642 -74.52887 7249 ft 305 kts 168°
2026-04-23 14:50 40.56615 -74.52168 7076 ft 297 kts 168°
2026-04-23 14:50 40.54628 -74.51457 6883 ft 292 kts 166°
2026-04-23 14:51 40.52803 -74.50272 6440 ft 299 kts 141°
2026-04-23 14:51 40.51506 -74.48174 6136 ft 293 kts 116°
2026-04-23 14:51 40.50590 -74.45768 5923 ft 288 kts 113°
2026-04-23 14:51 40.49715 -74.43436 5637 ft 286 kts 115°
2026-04-23 14:52 40.48806 -74.41104 5365 ft 284 kts 115°
2026-04-23 14:52 40.47902 -74.38786 5189 ft 278 kts 115°
2026-04-23 14:52 40.47033 -74.36561 4976 ft 274 kts 115°
2026-04-23 14:52 40.46262 -74.34259 4600 ft 273 kts 99°
2026-04-23 14:53 40.46240 -74.31832 4212 ft 267 kts 74°
2026-04-23 14:53 40.47001 -74.29689 3968 ft 248 kts 44°
2026-04-23 14:53 40.48309 -74.28512 3938 ft 217 kts 13°
2026-04-23 14:53 40.49743 -74.28288 3856 ft 206 kts
2026-04-23 14:54 40.51123 -74.27825 3601 ft 201 kts 16°
2026-04-23 14:54 40.52388 -74.27105 3353 ft 194 kts 20°
2026-04-23 14:54 40.53599 -74.26346 3111 ft 187 kts 21°
2026-04-23 14:54 40.54749 -74.25623 2879 ft 182 kts 21°
2026-04-23 14:55 40.55856 -74.24927 2651 ft 170 kts 21°
2026-04-23 14:55 40.56893 -74.24276 2437 ft 160 kts 20°
2026-04-23 14:55 40.57892 -74.23649 2231 ft 156 kts 20°
2026-04-23 14:55 40.58855 -74.23042 2031 ft 155 kts 20°
2026-04-23 14:56 40.59824 -74.22430 1836 ft 152 kts 20°
2026-04-23 14:56 40.60776 -74.21830 1624 ft 144 kts 20°
2026-04-23 14:56 40.61667 -74.21270 1434 ft 138 kts 20°
2026-04-23 14:56 40.62528 -74.20726 1251 ft 137 kts 21°
2026-04-23 14:57 40.63395 -74.20178 1064 ft 137 kts 21°
2026-04-23 14:57 40.64261 -74.19637 867 ft 137 kts 22°
2026-04-23 14:57 40.65123 -74.19083 661 ft 137 kts 23°
2026-04-23 14:57 40.65981 -74.18549 489 ft 138 kts 24°
2026-04-23 14:58 40.66842 -74.18011 302 ft 138 kts 24°
2026-04-23 14:58 40.67704 -74.17460 129 ft 138 kts 25°
2026-04-23 14:58 40.68565 -74.16914 34 ft 129 kts 25°
2026-04-23 14:58 40.69243 -74.16483 33 ft 87 kts 26°
2026-04-23 14:59 40.69529 -74.16302 33 ft 28 kts 25°
2026-04-23 14:59 40.69676 -74.16209 33 ft 19 kts 26°
2026-04-23 14:59 40.69764 -74.16180 33 ft 12 kts 342°
2026-04-23 14:59 40.69819 -74.16260 33 ft 12 kts 297°
2026-04-23 15:00 40.69858 -74.16360 33 ft 12 kts 296°
2026-04-23 15:00 40.69891 -74.16455 33 ft 10 kts 289°
2026-04-23 15:00 40.69902 -74.16515 33 ft 3 kts 278°
2026-04-23 15:00 40.69904 -74.16548 33 ft 4 kts 272°
2026-04-23 15:01 40.69899 -74.16591 33 ft 4 kts 238°
2026-04-23 15:01 40.69871 -74.16620 33 ft 5 kts 210°
2026-04-23 15:01 40.69835 -74.16646 33 ft 6 kts 206°
2026-04-23 15:01 40.69792 -74.16673 33 ft 7 kts 206°
2026-04-23 15:02 40.69745 -74.16705 33 ft 8 kts 206°
2026-04-23 15:02 40.69692 -74.16737 33 ft 8 kts 205°
2026-04-23 15:02 40.69637 -74.16771 33 ft 9 kts 205°
2026-04-23 15:02 40.69578 -74.16808 33 ft 9 kts 205°
2026-04-23 15:03 40.69537 -74.16834 33 ft 3 kts 206°
2026-04-23 15:03 40.69530 -74.16839 33 ft 0 kts 206°
2026-04-23 15:03 40.69529 -74.16840 33 ft 0 kts 206°
2026-04-23 15:04 40.69528 -74.16840 33 ft 0 kts 207°
2026-04-23 15:04 40.69513 -74.16856 33 ft 5 kts 234°
2026-04-23 15:04 40.69513 -74.16917 33 ft 7 kts 287°
2026-04-23 15:04 40.69527 -74.16988 33 ft 7 kts 275°
2026-04-23 15:05 40.69524 -74.17062 33 ft 8 kts 263°
2026-04-23 15:05 40.69512 -74.17127 33 ft 3 kts 229°
2026-04-23 15:05 40.69494 -74.17138 33 ft 1 kts 186°
2026-04-23 15:05 40.69485 -74.17139 33 ft 1 kts 184°
2026-04-23 15:06 40.69460 -74.17140 33 ft 6 kts 183°
2026-04-23 15:06 40.69430 -74.17164 33 ft 3 kts 237°
2026-04-23 15:06 40.69427 -74.17175 33 ft 1 kts 247°
2026-04-23 15:06 40.69426 -74.17178 33 ft 0 kts 249°